TimeCEST,TemperatureF,Dew PointF,Humidity,Sea Level PressureIn,VisibilityMPH,Wind Direction,Wind SpeedMPH,Gust SpeedMPH,PrecipitationIn,Events,Conditions,WindDirDegrees,DateUTC
12:15 AM,55.4,53.6,94,30.01,-9999.0,East,6.7,-,N/A,,Clear,90,2013-04-22 22:15:00
12:45 AM,55.4,51.8,88,30.01,-9999.0,North,6.7,-,N/A,,Clear,10,2013-04-22 22:45:00
1:15 AM,55.4,51.8,88,30.01,5.0,SE,4.5,-,N/A,,Unknown,130,2013-04-22 23:15:00
1:59 AM,51.8,51.8,100,30.01,2.5,East,2.2,-,N/A,,Scattered Clouds,100,2013-04-22 23:59:00
2:15 AM,51.8,50.0,94,30.01,2.5,NE,2.2,-,N/A,,Partly Cloudy,50,2013-04-23 00:15:00
2:45 AM,50.0,50.0,100,30.01,2.5,NE,2.2,-,N/A,,Partly Cloudy,40,2013-04-23 00:45:00
3:00 AM,-9999,-9999,N/A,-9999,3.1,Variable,2.2,-,N/A,Fog,Mist,0,2013-04-23 01:00:00
3:15 AM,50.0,50.0,100,30.04,1.9,East,2.2,-,N/A,Fog,Mist,80,2013-04-23 01:15:00
3:45 AM,-9999,-9999,N/A,-9999,3.1,Variable,2.2,-,N/A,Fog-Rain,Rain Showers,0,2013-04-23 01:45:00
4:15 AM,50.0,50.0,100,30.04,1.9,East,2.2,-,N/A,,Mist,100,2013-04-23 02:15:00
4:45 AM,50.0,48.2,94,30.04,2.5,ENE,4.5,-,N/A,,Mist,60,2013-04-23 02:45:00
5:15 AM,46.4,46.4,100,30.04,2.5,Calm,Calm,-,N/A,,Partly Cloudy,0,2013-04-23 03:15:00
5:45 AM,46.4,46.4,100,30.06,2.5,Calm,Calm,-,N/A,,Partly Cloudy,0,2013-04-23 03:45:00
6:15 AM,48.2,48.2,100,30.06,2.5,ENE,2.2,-,N/A,,Scattered Clouds,70,2013-04-23 04:15:00
6:20 AM,48.2,48.2,100,30.06,3.7,Calm,Calm,-,N/A,,Scattered Clouds,0,2013-04-23 04:20:00
6:45 AM,-9999,-9999,N/A,-9999,3.1,Variable,4.5,-,N/A,Rain,Rain Showers,0,2013-04-23 04:45:00
7:15 AM,51.8,51.8,100,30.09,5.0,SE,2.2,-,N/A,,Unknown,140,2013-04-23 05:15:00
7:45 AM,53.6,51.8,94,30.09,-9999.0,NW,2.2,-,N/A,,Clear,310,2013-04-23 05:45:00
8:15 AM,55.4,51.8,88,30.09,-9999.0,West,2.2,-,N/A,,Clear,270,2013-04-23 06:15:00
8:45 AM,57.2,53.6,88,30.09,-9999.0,SW,4.5,-,N/A,,Clear,220,2013-04-23 06:45:00
9:15 AM,59.0,53.6,82,30.12,-9999.0,SSW,4.5,-,N/A,,Clear,200,2013-04-23 07:15:00
9:45 AM,-9999,-9999,N/A,-9999,5.0,Variable,4.5,-,N/A,Rain,Rain Showers,0,2013-04-23 07:45:00
10:15 AM,62.6,51.8,68,30.12,-9999.0,WNW,4.5,-,N/A,,Clear,290,2013-04-23 08:15:00
10:45 AM,64.4,51.8,64,30.12,-9999.0,West,4.5,-,N/A,,Clear,270,2013-04-23 08:45:00
11:15 AM,64.4,51.8,64,30.15,6.2,SW,8.9,-,N/A,,Scattered Clouds,220,2013-04-23 09:15:00
11:45 AM,64.4,51.8,64,30.15,6.2,South,2.2,-,N/A,,Scattered Clouds,180,2013-04-23 09:45:00
12:15 PM,66.2,53.6,64,30.15,6.2,WSW,4.5,-,N/A,,Scattered Clouds,240,2013-04-23 10:15:00
12:45 PM,-9999,-9999,N/A,-9999,6.2,SW,8.9,-,N/A,,Mostly Cloudy,230,2013-04-23 10:45:00
1:15 PM,68.0,50.0,52,30.15,6.2,SW,4.5,-,N/A,,Scattered Clouds,230,2013-04-23 11:15:00
1:45 PM,68.0,51.8,56,30.15,6.2,SSW,11.2,-,N/A,,Scattered Clouds,210,2013-04-23 11:45:00
2:15 PM,68.0,51.8,56,30.15,6.2,SSW,11.2,-,N/A,,Scattered Clouds,200,2013-04-23 12:15:00
2:45 PM,68.0,51.8,56,30.15,6.2,SW,8.9,-,N/A,,Scattered Clouds,220,2013-04-23 12:45:00
3:15 PM,69.8,51.8,53,30.15,6.2,SW,6.7,-,N/A,,Scattered Clouds,230,2013-04-23 13:15:00
3:45 PM,-9999,-9999,N/A,-9999,5.0,SW,8.9,-,N/A,Rain,Rain Showers,230,2013-04-23 13:45:00
4:15 PM,69.8,51.8,53,30.15,6.2,SSW,11.2,-,N/A,,Scattered Clouds,210,2013-04-23 14:15:00
4:45 PM,69.8,50.0,49,30.12,6.2,SW,11.2,-,N/A,,Partly Cloudy,220,2013-04-23 14:45:00
5:15 PM,69.8,51.8,53,30.15,6.2,SSW,8.9,-,N/A,,Partly Cloudy,200,2013-04-23 15:15:00
5:45 PM,68.0,50.0,52,30.15,6.2,SW,8.9,-,N/A,,Partly Cloudy,220,2013-04-23 15:45:00
6:15 PM,69.8,48.2,46,30.15,6.2,SSW,11.2,-,N/A,,Partly Cloudy,210,2013-04-23 16:15:00
6:45 PM,-9999,-9999,N/A,-9999,-9999.0,SW,8.9,-,N/A,,Clear,220,2013-04-23 16:45:00
7:15 PM,66.2,48.2,52,30.15,-9999.0,SW,6.7,-,N/A,,Clear,220,2013-04-23 17:15:00
7:45 PM,64.4,48.2,56,30.15,-9999.0,SW,4.5,-,N/A,,Clear,220,2013-04-23 17:45:00
8:15 PM,62.6,48.2,59,30.18,-9999.0,South,4.5,-,N/A,,Clear,190,2013-04-23 18:15:00
8:45 PM,60.8,48.2,63,30.18,-9999.0,South,4.5,-,N/A,,Clear,190,2013-04-23 18:45:00
9:15 PM,59.0,50.0,72,30.21,-9999.0,South,4.5,-,N/A,,Clear,170,2013-04-23 19:15:00
9:45 PM,-9999,-9999,N/A,-9999,3.1,Variable,4.5,-,N/A,,Clear,0,2013-04-23 19:45:00
10:15 PM,55.4,48.2,77,30.21,-9999.0,South,4.5,-,N/A,,Clear,180,2013-04-23 20:15:00
10:45 PM,55.4,46.4,72,30.24,-9999.0,South,4.5,-,N/A,,Clear,180,2013-04-23 20:45:00
11:15 PM,57.2,46.4,67,30.24,-9999.0,South,4.5,-,N/A,,Clear,180,2013-04-23 21:15:00
11:45 PM,55.4,44.6,67,30.24,-9999.0,South,4.5,-,N/A,,Clear,180,2013-04-23 21:45:00